Tracking 19286 objects as of 19-Nov-2018
HD Live streaming from Space Station
objects crossing your sky now

GGSE 1 (GGRS)

Track GGSE 1 (GGRS) now!
10-day predictions
GGSE 1 (GGRS) is classified as:


NORAD ID: 728
Int'l Code: 1964-001B
Perigee: 899.2 km
Apogee: 922.6 km
Inclination: 69.9 °
Period: 103.1 minutes
Semi major axis: 7281 km
RCS: 0.3887 m2 (medium)
Launch date: January 11, 1964
Source: United States (US)
Launch site: AIR FORCE WESTERN TEST RANGE (AFWTR)
aabbcc
Your satellite tracking list
Your tracking list is empty




NASA's NSSDC Master Catalog

Two Line Element Set (TLE):
1   728U 64001B   18322.50822962 -.00000018  00000-0  25660-4 0  9991
2   728  69.9093  39.8792 0016102 304.0686  55.8891 13.97125552793500
Source of the keplerian elements: AFSPC